World > North America > United States > Pennsylvania

Hourly Blairs Mills, PA Regional Weather

Feedback E-mail the Weather

Quick WX

Blairs Mills, PA Weather Maps

°F °C°F °C
Blairs Mills Weather Map
UTC Time: 7/7/2022, 04:05
Your Time:

Blairs Mills, PA Regional Weather

Expires:202207070500;;876738
ASUS41 KCTP 070403
RWRCTP

REGIONAL WEATHER ROUNDUP
NATIONAL WEATHER SERVICE STATE COLLEGE PA
1200 AM EDT THU JUL 07 2022

Note: "fair" indicates few or no clouds below 12,000 feet with no 
significant weather and/or obstructions to visibility.

* = STATION THAT DOES NOT REPORT PRECIPITATION /E.G. RAIN...SNOW...ETC/
    THUNDER OR FOG.


PAZ004>006-010>012-017>019-024>028-033>037-041-042-045-046-049>053-070500-
CENTRAL PENNSYLVANIA
  
CITY           SKY/WX    TMP DP  RH WIND       PRES   REMARKS
BRADFORD       CLEAR     63  58  83 CALM      30.04F                  
ST MARYS       CLOUDY    64  63  94 CALM      30.06                   
DUBOIS         CLOUDY    70  62  76 E5        30.01S                  
CLEARFIELD     CLOUDY    69  62  78 NE3       30.00F                  
JOHNSTOWN      CLOUDY    67  63  87 CALM      30.01F                  
SOMERSET       RAIN      66  64  94 CALM      30.02S                  
ALTOONA        CLOUDY    70  67  90 CALM      29.99S                  
STATE COLLEGE  CLOUDY    71  62  73 NE5       29.99S                  
REEDSVILLE     MOCLDY    73  70  88 CALM      29.96                   
WELLSBORO      FAIR      61  61 100 NE6       30.04S                  
WILLIAMSPORT   CLOUDY    69  61  75 NW5       29.96S                  
SELINSGROVE    CLOUDY    72  64  76 CALM      29.96S                  
FT INDIANTOWN  CLOUDY    74  61  62 NE3       29.93S                  
CAPITAL CITY   CLOUDY    80  63  55 E5        29.93F                  
HARRISBURG     CLOUDY    78  62  57 CALM      29.92F                  
YORK           RAIN      71  64  78 E12       29.94R                  
$$


SKY/WX - Weather  TMP - Temperature  DP - Dew Point  RH - Humidity
WIND - Wind Direction/Speed PRES - Barometric Pressure VSB - Visibility
WCI - Wind Chill Index E13G22 Wind - East Wind 13 mph/Gusts of 22 mph

Trending Headlines

Blairs Mills Radar Loop



Blairs Mills Quick Facts


National Two Day Weather Forecast


E-mail the Blairs Mills Weather Forecast

Voice your opinion or tell us about page issues...